Weather History for KMAI - February, 2013

Change the Weather History Date:

Thursday, February 14, 2013

  Actual Average Record
Temperature  
Mean Temperature 44 °F 54 °F  
Max Temperature 51 °F 66 °F - ()
Min Temperature 37 °F 43 °F - ()
Degree Days  
Heating Degree Days 21    
Month to date heating degree days 120  
Since 1 July heating degree days 846  
Cooling Degree Days 0    
Month to date cooling degree days 5  
Year to date cooling degree days 58  
Moisture  
Dew Point 39 °F    
Average Humidity 79    
Maximum Humidity 92    
Minimum Humidity 66    
Precipitation  
Precipitation 0.00 in 0.17 in - ()
Month to date precipitation 2.77 2.37  
Year to date precipitation 3.73 7.41  
Sea Level Pressure  
Sea Level Pressure 30.07 in    
Wind  
Wind Speed 4 mph (North)    
Max Wind Speed 12 mph    
Max Gust Speed 13 mph    
Visibility 10 miles    
Events      
T = Trace of Precipitation, MM = Missing Value Source: NWS Daily Summary

Daily Weather History Graph

Daily Weather History Graph

Search for Another Location

Airport or City:

Trip Planner

Search our weather history database for the weather conditions in past years. The results will help you decide how hot, cold, wet, or windy it might be!

Date:

Astronomy

Feb. 14, 2013 Rise Set
Actual Time 6:22 AM CST 5:27 PM CST
Civil Twilight 5:57 AM CST 5:52 PM CST
Nautical Twilight 5:29 AM CST 6:21 PM CST
Astronomical Twilight 5:01 AM CST 6:49 PM CST
Moon 8:46 AM CST (2/14) 10:05 PM CST (2/14)
Length of Visible Light 11h 55m
Length of Day
11h 05m
Waxing Crescent, 22% of the Moon is Illuminated
Feb 14
Waxing Crescent
Feb 17
First Quarter
Feb 25
Full
Mar 4
Last Quarter
Mar 11
New

Hourly Weather History & Observations

Time (CST) Temp. Windchill Dew Point Humidity Pressure Visibility Wind Dir Wind Speed Gust Speed Precip Events Conditions
12:53 AM 48.9 °F - 43.0 °F 80% 30.04 in 10.0 mi NW 4.6 mph - N/A   Clear
1:53 AM 48.0 °F - 42.1 °F 80% 30.01 in 10.0 mi NNW 8.1 mph - N/A   Clear
2:53 AM 46.9 °F - 42.1 °F 83% 29.99 in 10.0 mi North 5.8 mph - N/A   Clear
3:53 AM 46.0 °F 41.9 °F 42.1 °F 86% 30.02 in 10.0 mi NNW 8.1 mph - N/A   Clear
4:53 AM 46.0 °F 43.1 °F 41.0 °F 83% 30.04 in 10.0 mi North 5.8 mph - N/A   Clear
5:53 AM 45.0 °F 40.1 °F 39.9 °F 82% 30.05 in 10.0 mi North 9.2 mph - N/A   Clear
6:53 AM 44.1 °F 40.1 °F 39.0 °F 82% 30.08 in 10.0 mi North 6.9 mph - N/A   Clear
7:53 AM 45.0 °F 43.5 °F 39.0 °F 80% 30.12 in 10.0 mi NNE 3.5 mph - N/A   Clear
8:53 AM 45.0 °F 41.2 °F 37.9 °F 76% 30.14 in 10.0 mi NNE 6.9 mph - N/A   Clear
9:53 AM 45.0 °F 41.2 °F 37.9 °F 76% 30.12 in 10.0 mi North 6.9 mph - N/A   Clear
10:53 AM 46.0 °F 43.1 °F 37.9 °F 73% 30.13 in 10.0 mi North 5.8 mph - N/A   Clear
11:53 AM 46.9 °F - 37.9 °F 71% 30.12 in 10.0 mi North 4.6 mph - N/A   Clear
12:53 PM 46.9 °F - 37.0 °F 68% 30.08 in 10.0 mi NNW 3.5 mph - N/A   Clear
1:53 PM 48.9 °F - 37.9 °F 66% 30.05 in 10.0 mi NNW 5.8 mph - N/A   Clear
2:53 PM 50.0 °F - 39.0 °F 66% 30.03 in 10.0 mi North 8.1 mph - N/A   Clear
3:53 PM 50.0 °F - 39.0 °F 66% 30.06 in 10.0 mi Calm Calm - N/A   Clear
4:53 PM 50.0 °F - 39.0 °F 66% 30.05 in 10.0 mi Calm Calm - N/A   Clear
5:53 PM 46.9 °F - 39.9 °F 77% 30.08 in 10.0 mi Calm Calm - N/A   Clear
6:53 PM 42.1 °F - 37.9 °F 85% 30.09 in 10.0 mi Calm Calm - N/A   Clear
7:53 PM 41.0 °F - 37.9 °F 89% 30.09 in 10.0 mi Calm Calm - N/A   Clear
8:53 PM 39.9 °F - 37.0 °F 89% 30.09 in 9.0 mi Calm Calm - N/A   Clear
9:53 PM 37.9 °F - 36.0 °F 93% 30.10 in 9.0 mi Calm Calm - N/A   Clear
10:53 PM 37.9 °F - 35.1 °F 89% 30.10 in 10.0 mi Calm Calm - N/A   Clear
11:53 PM 37.0 °F - 35.1 °F 93% 30.09 in 9.0 mi Calm Calm - N/A   Clear